K5GJ Weather Reports


Display with metric or nautical units.
time (UTC)temp
F
wind
direction
speed
MPH
gust
MPH
rain 1hr
in
rain 24hr
in
rain mn
in
humidity
%
barometer
mb
20210615002102 87 235 2.0 6.0 0.00 0.00 0.00 71 1013.9
20210615001602 87 243 2.0 9.0 0.00 0.00 0.00 70 1013.8
20210615001103 88 233 4.0 9.0 0.00 0.00 0.00 69 1013.8
20210615000603 88 245 2.0 7.0 0.00 0.00 0.00 69 1013.8
20210615000102 88 276 3.0 9.0 0.00 0.00 0.00 69 1013.8
20210614235604 89 219 4.0 11.0 0.00 0.00 0.00 68 1013.8
20210614235103 89 214 5.0 11.0 0.00 0.00 0.00 66 1013.8
20210614234601 90 210 3.0 7.0 0.00 0.00 0.00 65 1013.7
20210614234105 92 248 3.0 6.0 0.00 0.00 0.00 61 1013.7
20210614233606 92 1 0.0 1.0 0.00 0.00 0.00 59 1013.6
20210614233106 92 1 0.0 1.0 0.00 0.00 0.00 58 1013.5
20210614232603 93 1 0.0 2.0 0.00 0.00 0.00 58 1013.5
20210614232103 93 1 0.0 2.0 0.00 0.00 0.00 57 1013.5
20210614231602 93 0 0.0 1.0 0.00 0.00 0.00 57 1013.6
20210614231102 93 0 0.0 2.0 0.00 0.00 0.00 57 1013.5
20210614230602 94 0 1.0 4.0 0.00 0.00 0.00 57 1013.5
20210614230103 94 8 0.0 4.0 0.00 0.00 0.00 57 1013.4
20210614225602 94 48 0.0 3.0 0.00 0.00 0.00 58 1013.3
20210614225103 94 355 1.0 3.0 0.00 0.00 0.00 57 1013.4
20210614224603 94 0 0.0 4.0 0.00 0.00 0.00 57 1013.3
20210614224102 95 345 1.0 4.0 0.00 0.00 0.00 57 1013.3
20210614223606 95 358 1.0 4.0 0.00 0.00 0.00 55 1013.3
20210614223102 96 0 0.0 3.0 0.00 0.00 0.00 57 1013.5
20210614222602 95 51 0.0 3.0 0.00 0.00 0.00 55 1013.5
20210614222104 96 37 0.0 6.0 0.00 0.00 0.00 55 1013.6
20210614221603 96 333 4.0 6.0 0.00 0.00 0.00 54 1013.6
20210614221102 96 32 0.0 3.0 0.00 0.00 0.00 57 1013.5
20210614220602 96 123 0.0 5.0 0.00 0.00 0.00 57 1013.5
20210614220103 96 27 1.0 6.0 0.00 0.00 0.00 57 1013.5
20210614215602 96 18 1.0 6.0 0.00 0.00 0.00 55 1013.7
20210614215102 98 0 2.0 4.0 0.00 0.00 0.00 54 1013.6
20210614214602 98 61 1.0 4.0 0.00 0.00 0.00 54 1013.8
20210614214102 97 148 0.0 5.0 0.00 0.00 0.00 55 1013.7
20210614213602 96 0 1.0 5.0 0.00 0.00 0.00 54 1013.8
20210614213102 98 326 2.0 4.0 0.00 0.00 0.00 54 1013.8
20210614212602 97 62 2.0 6.0 0.00 0.00 0.00 55 1013.7
20210614212102 96 197 1.0 6.0 0.00 0.00 0.00 54 1013.8
20210614211602 96 3 2.0 5.0 0.00 0.00 0.00 54 1013.7
20210614211103 97 197 2.0 5.0 0.00 0.00 0.00 55 1013.8
20210614210603 97 27 2.0 5.0 0.00 0.00 0.00 57 1013.8
20210614210102 98 317 1.0 5.0 0.00 0.00 0.00 56 1013.9
20210614205603 98 213 2.0 4.0 0.00 0.00 0.00 56 1014.0
20210614205102 96 96 1.0 5.0 0.00 0.00 0.00 57 1014.0
20210614204601 97 104 2.0 6.0 0.00 0.00 0.00 54 1014.0
20210614204102 97 0 4.0 6.0 0.00 0.00 0.00 54 1014.2
20210614203603 97 51 1.0 6.0 0.00 0.00 0.00 57 1014.2
20210614203103 97 350 3.0 6.0 0.00 0.00 0.00 54 1014.0
20210614202604 97 23 3.0 6.0 0.00 0.00 0.00 52 1014.0
20210614202103 97 327 2.0 5.0 0.00 0.00 0.00 53 1014.2
20210614201602 98 329 2.0 6.0 0.00 0.00 0.00 55 1014.3
20210614201103 98 96 2.0 6.0 0.00 0.00 0.00 52 1014.3
20210614200602 98 0 2.0 6.0 0.00 0.00 0.00 53 1014.4
20210614200102 98 341 2.0 9.0 0.00 0.00 0.00 52 1014.6
20210614195603 97 55 2.0 9.0 0.00 0.00 0.00 53 1014.6
20210614195102 97 337 3.0 7.0 0.00 0.00 0.00 52 1014.7
20210614194603 97 0 2.0 5.0 0.00 0.00 0.00 51 1014.7
20210614194102 98 0 2.0 6.0 0.00 0.00 0.00 53 1014.7
20210614193601 97 309 3.0 6.0 0.00 0.00 0.00 51 1014.7
20210614193102 96 333 2.0 5.0 0.00 0.00 0.00 54 1014.6
20210614192602 97 27 1.0 5.0 0.00 0.00 0.00 56 1014.7
20210614192103 96 344 2.0 7.0 0.00 0.00 0.00 55 1014.8
20210614191602 97 309 3.0 7.0 0.00 0.00 0.00 55 1014.8
20210614191101 97 172 2.0 6.0 0.00 0.00 0.00 55 1014.9
20210614190603 98 168 2.0 10.0 0.00 0.00 0.00 58 1015.0
20210614190102 96 0 3.0 10.0 0.00 0.00 0.00 56 1015.1
20210614185603 96 348 4.0 9.0 0.00 0.00 0.00 56 1015.1
20210614185102 97 333 3.0 6.0 0.00 0.00 0.00 54 1015.2
20210614184602 96 180 2.0 6.0 0.00 0.00 0.00 59 1015.2
20210614184103 96 329 2.0 6.0 0.00 0.00 0.00 55 1015.3
20210614183602 97 334 2.0 5.0 0.00 0.00 0.00 57 1015.4
20210614183102 97 10 1.0 7.0 0.00 0.00 0.00 57 1015.4
20210614182602 95 350 3.0 7.0 0.00 0.00 0.00 56 1015.4
20210614182103 96 0 3.0 6.0 0.00 0.00 0.00 58 1015.5
20210614181601 95 338 5.0 9.0 0.00 0.00 0.00 57 1015.5
20210614181104 94 333 4.0 9.0 0.00 0.00 0.00 58 1015.6
20210614180602 95 209 0.0 7.0 0.00 0.00 0.00 60 1015.7
20210614180102 94 0 3.0 7.0 0.00 0.00 0.00 58 1015.7
20210614175602 94 348 3.0 9.0 0.00 0.00 0.00 57 1015.8
20210614175102 94 3 4.0 9.0 0.00 0.00 0.00 57 1015.8
20210614174603 94 348 1.0 4.0 0.00 0.00 0.00 58 1015.8
20210614174103 94 336 2.0 5.0 0.00 0.00 0.00 57 1015.9
20210614173602 95 350 3.0 9.0 0.00 0.00 0.00 58 1016.0
20210614173102 94 344 4.0 9.0 0.00 0.00 0.00 57 1016.0
20210614172604 94 137 1.0 5.0 0.00 0.00 0.00 58 1016.0
20210614172102 94 199 1.0 5.0 0.00 0.00 0.00 59 1016.0
20210614171602 94 307 2.0 5.0 0.00 0.00 0.00 60 1016.1
20210614171102 93 13 3.0 5.0 0.00 0.00 0.00 59 1016.1
20210614170602 93 313 0.0 7.0 0.00 0.00 0.00 60 1016.0
20210614170102 93 3 1.0 7.0 0.00 0.00 0.00 59 1016.1
20210614165604 93 317 3.0 6.0 0.00 0.00 0.00 59 1016.0
20210614165103 92 344 2.0 6.0 0.00 0.00 0.00 58 1016.2
20210614164603 93 336 1.0 7.0 0.00 0.00 0.00 63 1016.1
20210614164103 93 343 4.0 7.0 0.00 0.00 0.00 60 1016.1
20210614163602 93 341 2.0 6.0 0.00 0.00 0.00 62 1016.0
20210614163103 93 41 3.0 6.0 0.00 0.00 0.00 60 1016.0
20210614162603 92 341 2.0 6.0 0.00 0.00 0.00 62 1015.9
20210614162102 92 0 2.0 4.0 0.00 0.00 0.00 63 1015.9
20210614161603 93 341 1.0 3.0 0.00 0.00 0.00 61 1015.9
20210614161103 93 149 0.0 3.0 0.00 0.00 0.00 62 1015.8
20210614160604 93 24 1.0 3.0 0.00 0.00 0.00 61 1015.8
20210614160102 92 103 1.0 3.0 0.00 0.00 0.00 66 1015.8
20210614155602 92 338 1.0 3.0 0.00 0.00 0.00 61 1015.7
20210614155103 92 28 0.0 3.0 0.00 0.00 0.00 65 1015.7
20210614154604 91 330 2.0 4.0 0.00 0.00 0.00 63 1015.8
20210614154032 92 16 1.0 4.0 0.00 0.00 0.00 62 1015.8
20210614153531 91 166 0.0 2.0 0.00 0.00 0.00 66 1015.7
20210614153032 90 210 0.0 2.0 0.00 0.00 0.00 65 1015.7
20210614152531 90 176 0.0 3.0 0.00 0.00 0.00 67 1015.8
20210614152032 89 358 0.0 3.0 0.00 0.00 0.00 66 1015.9
20210614151531 89 327 1.0 2.0 0.00 0.00 0.00 64 1015.8
20210614151032 89 345 1.0 2.0 0.00 0.00 0.00 65 1016.0
20210614150530 89 28 1.0 2.0 0.00 0.00 0.00 66 1015.8
20210614150029 88 151 0.0 2.0 0.00 0.00 0.00 66 1015.8
20210614145531 88 151 1.0 2.0 0.00 0.00 0.00 66 1015.9
20210614145032 88 168 0.0 4.0 0.00 0.00 0.00 67 1015.8
20210614144527 87 109 0.0 4.0 0.00 0.00 0.00 67 1015.8
20210614144027 87 149 1.0 3.0 0.00 0.00 0.00 67 1015.8
20210614143527 86 24 0.0 2.0 0.00 0.00 0.00 69 1016.0
20210614143026 86 17 1.0 2.0 0.00 0.00 0.00 69 1015.9
20210614142520 86 18 0.0 2.0 0.00 0.00 0.00 72 1015.8
20210614142021 85 353 0.0 2.0 0.00 0.00 0.00 71 1015.8
20210614141522 85 353 1.0 3.0 0.00 0.00 0.00 69 1015.8
20210614141017 85 351 1.0 3.0 0.00 0.00 0.00 70 1015.8
20210614140518 84 329 1.0 2.0 0.00 0.00 0.00 71 1015.9
20210614140017 83 248 0.0 2.0 0.00 0.00 0.00 74 1015.9
20210614135515 83 207 0.0 0.0 0.00 0.00 0.00 76 1016.0
20210614135016 83 206 0.0 0.0 0.00 0.00 0.00 73 1016.0
20210614134514 83 206 0.0 0.0 0.00 0.00 0.00 73 1015.9
20210614134015 83 206 0.0 0.0 0.00 0.00 0.00 74 1015.9
20210614133515 83 1 0.0 0.0 0.00 0.00 0.00 72 1015.8
20210614133016 83 110 0.0 0.0 0.00 0.00 0.00 72 1015.7
20210614132514 82 110 0.0 0.0 0.00 0.00 0.00 74 1015.7
20210614132012 82 110 0.0 0.0 0.00 0.00 0.00 74 1015.7
20210614131512 82 166 0.0 0.0 0.00 0.00 0.00 75 1015.7
20210614131009 81 162 0.0 0.0 0.00 0.00 0.00 76 1015.7
20210614130512 81 125 0.0 1.0 0.00 0.00 0.00 77 1015.6
20210614130011 80 127 0.0 1.0 0.00 0.00 0.00 80 1015.6
20210614125508 80 169 0.0 1.0 0.00 0.00 0.00 81 1015.7
20210614125008 80 152 0.0 1.0 0.00 0.00 0.00 82 1015.7
20210614124507 80 192 0.0 1.0 0.00 0.00 0.00 82 1015.7
20210614124006 80 192 0.0 2.0 0.00 0.00 0.00 83 1015.7
20210614123508 79 192 0.0 2.0 0.00 0.00 0.00 83 1015.6
20210614123006 79 192 0.0 0.0 0.00 0.00 0.00 83 1015.7
20210614122504 79 192 0.0 1.0 0.00 0.00 0.00 83 1015.7
20210614122005 79 192 0.0 1.0 0.00 0.00 0.00 83 1015.5
20210614121505 79 190 0.0 1.0 0.00 0.00 0.00 83 1015.5
20210614121004 79 190 0.0 1.0 0.00 0.00 0.00 83 1015.6
20210614120503 79 190 0.0 1.0 0.00 0.00 0.00 83 1015.7
20210614120005 78 190 0.0 1.0 0.00 0.00 0.00 84 1015.6
20210614115505 78 190 0.0 1.0 0.00 0.00 0.00 84 1015.6
20210614115003 78 190 0.0 2.0 0.00 0.00 0.00 84 1015.6
20210614114502 78 190 0.0 2.0 0.00 0.00 0.00 84 1015.3
20210614114002 78 86 0.0 1.0 0.00 0.00 0.00 84 1015.3
20210614113503 78 86 0.0 2.0 0.00 0.00 0.00 84 1015.4
20210614113003 78 86 0.0 2.0 0.00 0.00 0.00 85 1015.3
20210614112502 78 89 0.0 2.0 0.00 0.00 0.00 85 1015.2
20210614112004 78 123 0.0 1.0 0.00 0.00 0.00 85 1015.1
20210614111503 79 123 0.0 1.0 0.00 0.00 0.00 85 1015.0
20210614111002 79 123 0.0 1.0 0.00 0.00 0.00 84 1014.7
20210614110505 79 123 0.0 1.0 0.00 0.00 0.00 84 1014.6
20210614110003 80 123 0.0 1.0 0.00 0.00 0.00 84 1014.6
20210614105502 80 123 0.0 1.0 0.00 0.00 0.00 84 1014.7
20210614105003 80 123 0.0 3.0 0.00 0.00 0.00 84 1014.8
20210614104502 80 121 0.0 3.0 0.00 0.00 0.00 84 1014.9
20210614104002 80 125 0.0 4.0 0.00 0.00 0.00 84 1015.1
20210614103503 79 121 1.0 4.0 0.00 0.00 0.00 85 1015.1
20210614103002 79 248 0.0 1.0 0.00 0.00 0.00 85 1015.1
20210614102503 79 248 0.0 1.0 0.00 0.00 0.00 84 1015.0
20210614102002 80 248 0.0 1.0 0.00 0.00 0.00 84 1014.9
20210614101503 80 257 0.0 0.0 0.00 0.00 0.00 83 1014.8
20210614101002 80 257 0.0 0.0 0.00 0.00 0.00 82 1014.5
20210614100503 80 257 0.0 0.0 0.00 0.00 0.00 82 1014.2
20210614100002 81 257 0.0 2.0 0.00 0.00 0.00 82 1014.0
20210614095502 81 257 0.0 2.0 0.00 0.00 0.00 81 1013.9
20210614095004 81 254 0.0 3.0 0.00 0.00 0.00 81 1013.9
20210614094504 81 252 0.0 3.0 0.00 0.00 0.00 81 1013.8
20210614094003 81 234 1.0 4.0 0.00 0.00 0.00 81 1013.7
20210614093503 81 245 2.0 4.0 0.00 0.00 0.00 81 1013.6
20210614093002 81 243 2.0 4.0 0.00 0.00 0.00 81 1013.5
20210614092502 82 209 1.0 4.0 0.00 0.00 0.00 81 1013.6
20210614092003 81 217 1.0 5.0 0.00 0.00 0.00 82 1013.7
20210614091502 81 219 2.0 5.0 0.00 0.00 0.00 82 1013.5
20210614091001 81 234 2.0 5.0 0.00 0.00 0.00 83 1013.5
20210614090503 81 224 1.0 3.0 0.00 0.00 0.00 83 1013.6
20210614090003 81 237 2.0 3.0 0.00 0.00 0.00 82 1013.8
20210614085503 81 237 1.0 2.0 0.00 0.00 0.00 81 1013.9
20210614085002 81 305 1.0 2.0 0.00 0.00 0.00 81 1014.1
20210614084502 82 357 0.0 1.0 0.00 0.00 0.00 81 1014.2
20210614084005 82 357 0.0 2.0 0.00 0.00 0.00 81 1014.4
20210614083502 82 357 1.0 3.0 0.00 0.00 0.00 81 1014.3
20210614083002 82 0 0.0 4.0 0.00 0.00 0.00 81 1014.5
20210614082503 83 341 2.0 4.0 0.00 0.00 0.00 80 1014.3
20210614082002 83 221 0.0 2.0 0.00 0.00 0.00 79 1014.2
20210614081502 83 221 1.0 2.0 0.00 0.00 0.00 79 1014.4
20210614081002 83 111 0.0 3.0 0.00 0.00 0.00 80 1014.6
20210614080502 82 162 1.0 5.0 0.00 0.00 0.00 80 1014.6
20210614080003 82 237 1.0 5.0 0.00 0.00 0.00 81 1014.4
20210614075503 82 55 1.0 5.0 0.00 0.00 0.00 81 1014.9
20210614075003 82 216 0.0 3.0 0.00 0.00 0.00 80 1014.7
20210614074504 82 214 1.0 3.0 0.00 0.00 0.00 81 1014.8
20210614074003 82 223 2.0 3.0 0.00 0.00 0.00 81 1014.7
20210614073502 82 214 2.0 3.0 0.00 0.00 0.00 81 1014.9
20210614073003 82 214 1.0 3.0 0.00 0.00 0.00 81 1015.0
20210614072502 82 210 0.0 3.0 0.00 0.00 0.00 81 1015.2
20210614072003 83 192 0.0 2.0 0.00 0.00 0.00 81 1015.2
20210614071502 82 195 0.0 3.0 0.00 0.00 0.00 82 1015.1
20210614071002 83 196 1.0 3.0 0.00 0.00 0.00 82 1015.1
20210614070502 83 196 1.0 3.0 0.00 0.00 0.00 81 1015.1
20210614070003 83 197 1.0 3.0 0.00 0.00 0.00 81 1015.2
20210614065502 83 189 1.0 2.0 0.00 0.00 0.00 82 1015.2
20210614065002 83 192 1.0 2.0 0.00 0.00 0.00 82 1015.2
20210614064504 83 58 0.0 0.0 0.00 0.00 0.00 82 1015.3
20210614064004 83 23 0.0 0.0 0.00 0.00 0.00 82 1015.3
20210614063502 83 23 0.0 0.0 0.00 0.00 0.00 81 1015.3
20210614063006 83 21 0.0 0.0 0.00 0.00 0.00 81 1015.2
20210614062503 83 24 0.0 0.0 0.00 0.00 0.00 82 1015.3
20210614062002 83 27 0.0 0.0 0.00 0.00 0.00 82 1015.3
20210614061502 83 30 0.0 0.0 0.00 0.00 0.00 81 1015.4
20210614061004 83 32 0.0 0.0 0.00 0.00 0.00 81 1015.4
20210614060503 83 35 0.0 0.0 0.00 0.00 0.00 81 1015.2
20210614060003 83 37 0.0 0.0 0.00 0.00 0.00 81 1015.3
20210614055502 83 35 0.0 0.0 0.00 0.00 0.00 81 1015.3
20210614055003 84 38 0.0 0.0 0.00 0.00 0.00 79 1015.3
20210614054503 84 38 0.0 0.0 0.00 0.00 0.00 78 1015.3
20210614054003 84 37 0.0 0.0 0.00 0.00 0.00 78 1015.3
20210614053502 84 45 0.0 0.0 0.00 0.00 0.00 78 1015.2
20210614053003 84 39 0.0 0.0 0.00 0.00 0.00 78 1015.3
20210614052503 85 35 0.0 0.0 0.00 0.00 0.00 78 1015.3
20210614052002 85 38 0.0 0.0 0.00 0.00 0.00 78 1015.4
20210614051502 85 41 0.0 0.0 0.00 0.00 0.00 77 1015.4
20210614051003 85 39 0.0 0.0 0.00 0.00 0.00 77 1015.3
20210614050503 85 39 0.0 0.0 0.00 0.00 0.00 77 1015.3
20210614050003 85 41 0.0 0.0 0.00 0.00 0.00 77 1015.3
20210614045502 85 44 0.0 0.0 0.00 0.00 0.00 77 1015.2
20210614045003 85 42 0.0 0.0 0.00 0.00 0.00 77 1015.2
20210614044503 85 42 0.0 0.0 0.00 0.00 0.00 78 1015.1
20210614044003 85 39 0.0 0.0 0.00 0.00 0.00 78 1015.1
20210614043502 85 38 0.0 0.0 0.00 0.00 0.00 78 1015.0
20210614043004 84 39 0.0 0.0 0.00 0.00 0.00 78 1014.9
20210614042501 84 39 0.0 0.0 0.00 0.00 0.00 78 1014.8
20210614042003 85 38 0.0 0.0 0.00 0.00 0.00 79 1014.6
20210614041503 85 48 0.0 0.0 0.00 0.00 0.00 78 1014.4
20210614041003 85 41 0.0 0.0 0.00 0.00 0.00 77 1014.3
20210614040502 85 48 0.0 0.0 0.00 0.00 0.00 76 1014.1
20210614040002 85 55 0.0 0.0 0.00 0.00 0.00 76 1014.0
20210614035502 86 49 0.0 0.0 0.00 0.00 0.00 76 1013.9
20210614035002 86 38 0.0 0.0 0.00 0.00 0.00 74 1013.8
20210614034501 86 34 0.0 0.0 0.00 0.00 0.00 74 1013.7
20210614034001 86 31 0.0 0.0 0.00 0.00 0.00 74 1013.6
20210614033501 86 25 0.0 0.0 0.00 0.00 0.00 73 1013.6
20210614033001 86 27 0.0 0.0 0.00 0.00 0.00 73 1013.6
20210614032502 86 24 0.0 0.0 0.00 0.00 0.00 73 1013.5
20210614032001 87 24 0.0 0.0 0.00 0.00 0.00 73 1013.4
20210614031500 87 21 0.0 0.0 0.00 0.00 0.00 71 1013.4
20210614031000 87 17 0.0 0.0 0.00 0.00 0.00 70 1013.4
20210614030501 87 3 0.0 0.0 0.00 0.00 0.00 70 1013.4
20210614030001 87 3 0.0 0.0 0.00 0.00 0.00 69 1013.3
20210614025500 88 3 0.0 0.0 0.00 0.00 0.00 68 1013.4
20210614024959 88 3 0.0 0.0 0.00 0.00 0.00 68 1013.5
20210614024459 88 3 0.0 0.0 0.00 0.00 0.00 68 1013.3
20210614024000 88 3 0.0 0.0 0.00 0.00 0.00 68 1013.4
20210614023459 88 3 0.0 0.0 0.00 0.00 0.00 68 1013.5
20210614022959 88 3 0.0 0.0 0.00 0.00 0.00 67 1013.4
20210614022500 89 3 0.0 0.0 0.00 0.00 0.00 67 1013.5
20210614022000 89 3 0.0 0.0 0.00 0.00 0.00 67 1013.4
20210614021459 89 3 0.0 1.0 0.00 0.00 0.00 66 1013.4
20210614020959 89 1 0.0 2.0 0.00 0.00 0.00 66 1013.3
20210614020459 89 1 0.0 2.0 0.00 0.00 0.00 65 1013.4
20210614015959 89 1 1.0 2.0 0.00 0.00 0.00 65 1013.4
20210614015459 89 1 1.0 1.0 0.00 0.00 0.00 64 1013.2
20210614014958 90 1 0.0 1.0 0.00 0.00 0.00 64 1013.2
20210614014458 90 1 0.0 1.0 0.00 0.00 0.00 63 1013.3
20210614014000 90 1 0.0 1.0 0.00 0.00 0.00 63 1013.3
20210614013500 90 1 0.0 2.0 0.00 0.00 0.00 62 1013.2
20210614013001 91 1 1.0 4.0 0.00 0.00 0.00 61 1013.3
20210614012458 92 357 1.0 4.0 0.00 0.00 0.00 60 1013.3
20210614011959 92 354 2.0 4.0 0.00 0.00 0.00 59 1013.3
20210614011458 92 347 2.0 5.0 0.00 0.00 0.00 58 1013.3
20210614010957 92 341 2.0 5.0 0.00 0.00 0.00 57 1013.3
20210614010458 92 355 2.0 4.0 0.00 0.00 0.00 57 1013.2
20210614005958 92 336 2.0 4.0 0.00 0.00 0.00 56 1013.0
20210614005458 93 357 2.0 4.0 0.00 0.00 0.00 56 1013.0
20210614004959 93 337 2.0 4.0 0.00 0.00 0.00 55 1013.1
20210614004459 93 337 1.0 6.0 0.00 0.00 0.00 55 1013.0
20210614003957 94 0 3.0 6.0 0.00 0.00 0.00 53 1013.0
20210614003457 93 323 2.0 5.0 0.00 0.00 0.00 53 1012.9
20210614002957 93 354 2.0 6.0 0.00 0.00 0.00 54 1013.1